Regional Weather Roundup
Issued by NWS New Orleans/Baton Rouge, LA

Home | Current Version | Previous Version | Text Only | Print | Product List | Glossary On
Versions: 1 2 3 4 5 6 7 8 9 10 11 12 13 14 15 16 17 18 19 20 21 22 23 24 25 26 27 28 29 30 31 32 33 34 35 36 37 38 39 40 41 42 43 44 45 46 47 48 49 50
918
ASUS44 KLIX 211513
RWRLIX
NEW ORLEANS REGIONAL WEATHER ROUNDUP
NATIONAL WEATHER SERVICE NEW ORLEANS LA
900 AM CST SUN JAN 21 2018

NOTE: "FAIR" INDICATES FEW OR NO CLOUDS BELOW 12,000 FEET WITH NO
      SIGNIFICANT WEATHER AND/OR OBSTRUCTIONS TO VISIBILITY.
      SKY/WX - SKY CONDITION AND SIGNIFICANT WEATHER.
      TMP - AIR TEMPERATURE.     DP    - DEWPOINT TEMPERATURE.
      RH  - RELATIVE HUMIDITY.   PRES  - PRESSURE.
      HI  - HEAT INDEX.          WCI   - WIND CHILL INDEX.

*  THESE STATIONS ARE NOT NWS OR FAA STATIONS AND ARE NOT UNDER
   NWS QUALITY CONTROL.

LAZ038-040-048-061>063-065>067-069-211600-
SOUTHEAST LOUISIANA

CITY           SKY/WX    TMP DP  RH WIND       PRES   REMARKS
N.O. INTL ARPT FAIR      64  60  87 SE9       30.17R
N.O. LAKEFRONT FAIR      60  56  86 SE9       30.18R
N.O. DOWNTOWN* FAIR      62  57  83 VRB7      30.19R
RESERVE*       FAIR      62  57  83 SE6       30.17R
SLIDELL        FAIR      60  53  77 E5        30.18S
BATON ROUGE    PTSUNNY   59  55  87 E8        30.15R
BOOTHVILLE     FAIR      64  59  83 E7        30.19R
BELLE CHASSE   FAIR      61  60  97 SE7       30.17R
BOGALUSA*      FAIR      55  53  92 CALM      30.20R
GALLIANO*      FAIR      63  57  81 SE8       30.16R
NEW ROADS*     FAIR      58  57  94 SE8       30.14R
GONZALES*      FAIR      59  57  94 CALM      30.15R
HAMMOND*       FAIR      55  52  88 S7        30.17S
HOUMA*         SUNNY     64  63  94 SE9       30.15R
PORT FOURCHON* SUNNY     64  61  88 E10       30.16R

$$

MSZ070-080>082-211600-
SOUTHERN MISSISSIPPI

CITY           SKY/WX    TMP DP  RH WIND       PRES   REMARKS
MCCOMB         FAIR      59  54  83 SE8       30.17R
GULFPORT       FAIR      60  55  83 E5        30.20R
BILOXI         FAIR      59  54  84 E5        30.20R
PASCAGOULA     FAIR      58  52  80 MISG      30.22R
STENNIS ARPT*  SUNNY     59  55  88 SE5       30.21R

$$

COASTAL OBSERVATIONS
LAKE AND NEARSHORE STATIONS

STATION/POSITION TIME  SKY/WX   TEMP    WIND        PRES    WAVE
                                AIR SEA DIR/SP/G            HT/PER
                 (UTC)          (F)     (DEG/KT/KT) (MB)    (FT/S)
PASCAGOULA       1448            62     110/  8/ 12 1022.7
WAVELAND YACHT   1442            58 46  130/  9/ 11 1022.5
GRAND ISLE       1448            61 55  110/  6/  9 1021.4
SOUTHWEST PASS   1448            65 47  130/ 12/ 15 1022.1
NEW CANAL        1448            59 45  130/  3/  6 1021.5
SHELL BEACH      1442            60 49  110/ 12/ 14 1022.1

OFFSHORE STATIONS

STATION/POSITION TIME  SKY/WX   TEMP    WIND        PRES    WAVE
                                AIR SEA DIR/SP/G            HT/PER
                 (UTC)          (F)     (DEG/KT/KT) (MB)    (FT/S)
64 S DAUPHIN ISL 1450            65 64  100/ 10/ 12 1023.0    3/ 6

$$





USA.gov is the U.S. government's official web portal to all federal, state and local government web resources and services.